Regional Weather Roundup
Issued by NWS

Home | Current Version | Previous Version | Graphics & Text | Print | Product List | Glossary On
Versions: 1 2 3 4 5 6 7 8 9 10 11 12 13 14 15 16 17 18 19 20 21 22 23 24 25 26 27 28 29 30 31 32 33 34 35 36 37 38 39 40 41 42 43 44 45 46 47 48 49 50
000
ASUS43 KBIS 141910
RWRND

NORTH DAKOTA REGIONAL WEATHER ROUNDUP
NATIONAL WEATHER SERVICE BISMARCK ND
100 PM CST SUN FEB 14 2016

NOTE: "FAIR" INDICATES FEW OR NO CLOUDS BELOW 12,000 FEET WITH NO
SIGNIFICANT WEATHER AND/OR OBSTRUCTIONS TO VISIBILITY.


NDZ001>003-009>011-017-142000-
NORTHWEST NORTH DAKOTA

CITY           SKY/WX    TMP DP  RH WIND       PRES   REMARKS
WILLISTON      PTSUNNY   34  27  75 SW7       29.72S
MINOT          CLOUDY    34  26  72 W14       29.68S
MINOT AFB      CLOUDY    33  32  93 NW15      29.67S
$$

NDZ018>021-031>035-040>046-142000-
SOUTHWEST NORTH DAKOTA

CITY           SKY/WX    TMP DP  RH WIND       PRES   REMARKS
BISMARCK       CLOUDY    40  29  64 NW3       29.72F
DICKINSON      PTSUNNY   37  28  70 W17       29.69F
GARRISON         N/A     35  28  75 NW10      29.69F
HETTINGER ARPT CLOUDY    39  31  72 W20G25    29.74S
$$

NDZ004>008-012>016-024-026-027-054-142000-
NORTHEAST NORTH DAKOTA

CITY           SKY/WX    TMP DP  RH WIND       PRES   REMARKS
GRAND FORKS    LGT SNOW  17  13  84 S18       29.75F VSB 1   WCI   1
GRND FRKS AFB  CLOUDY    17  12  82 S15       29.73F HAZE    WCI   2
DEVILS LAKE    CLOUDY    21  17  84 W12       29.68F WCI   9
$$

NDZ022-023-025-028>030-036>039-047>053-142000-
SOUTHEAST NORTH DAKOTA

CITY           SKY/WX    TMP DP  RH WIND       PRES   REMARKS
FARGO          LGT SNOW  17  12  80 S20       29.79F WCI   1
JAMESTOWN      CLOUDY    27  22  81 NW10      29.69F WCI  17
$$




USA.gov is the U.S. government's official web portal to all federal, state and local government web resources and services.